QPF
0.00 0.00 0.01 0.01 0.01 0.01 0.00 0.00 0.00 0.00 0.00 0.00 0.00 0.00 0.00 0.00 0.00 0.00 0.00 0.00 0.00 0.00 0.00 0.00 0.00 0.00 0.00 0.00 0.00 0.00 0.00 0.00 0.01 0.00 0.00 0.00 0.00 0.00 0.00 0.00 0.00 0.00 0.00 0.00
0.00 0.00 0.00 0.00 0.01 0.00 0.00 0.00 0.00 0.00 0.00 0.00 0.00 0.00 0.00 0.00 0.00 0.00 0.00 0.00 0.00 0.00 0.00 0.00 0.00 0.00 0.00 0.00 0.00 0.00 0.00 0.00 0.01 0.01 0.00 0.00 0.00 0.00 0.00 0.00 0.00 0.00 0.01 0.01
0.00 0.00 0.00 0.00 0.00 0.00 0.00 0.00 0.00 0.00 0.00 0.00 0.00 0.00 0.00 0.00 0.00 0.00 0.00 0.00 0.00 0.00 0.00 0.00 0.00 0.00 0.00 0.00 0.00 0.00 0.00 0.00 0.01 0.01 0.01 0.00 0.00 0.00 0.00 0.00 0.00 0.00 0.00 0.00
0.00 0.00 0.00 0.00 0.00 0.00 0.00 0.00 0.00 0.00 0.00 0.00 0.00 0.00 0.00 0.00 0.00 0.00 0.00 0.00 0.00 0.00 0.00 0.00 0.00 0.00 0.00 0.00 0.00 0.00 0.00 0.00 0.00 0.01 0.01 0.00 0.00 0.00 0.00 0.00 0.00 0.00 0.00 0.00
0.01 0.00 0.00 0.00 0.00 0.00 0.00 0.00 0.00 0.00 0.00 0.00 0.00 0.00 0.00 0.00 0.00 0.00 0.00 0.00 0.00 0.00 0.00 0.00 0.00 0.00 0.00 0.00 0.00 0.01 0.00 0.00 0.00 0.00 0.01 0.01 0.01 0.01 0.01 0.00 0.00 0.00 0.00 0.00
0.01 0.01 0.00 0.00 0.00 0.00 0.00 0.00 0.00 0.00 0.00 0.00 0.00 0.00 0.00 0.00 0.00 0.00 0.00 0.00 0.00 0.00 0.00 0.00 0.00 0.00 0.00 0.00 0.00 0.00 0.00 0.00 0.00 0.00 0.00 0.01 0.01 0.01 0.01 0.01 0.00 0.00 0.00 0.00
0.00 0.00 0.00 0.00 0.00 0.00 0.00 0.00 0.00 0.00 0.00 0.00 0.00 0.00 0.00 0.00 0.00 0.00 0.00 0.00 0.00 0.00 0.00 0.00 0.00 0.00 0.00 0.00 0.00 0.01 0.01 0.01 0.01 0.00 0.00 0.00 0.00 0.00 0.01 0.01 0.01 0.00 0.01 0.01
0.00 0.00 0.00 0.00 0.00 0.00 0.00 0.00 0.00 0.00 0.00 0.00 0.00 0.00 0.00 0.00 0.00 0.00 0.00 0.00 0.00 0.00 0.00 0.00 0.00 0.00 0.00 0.00 0.00 0.00 0.01 0.01 0.01 0.00 0.00 0.00 0.00 0.00 0.00 0.00 0.00 0.01 0.01 0.02
0.00 0.00 0.00 0.00 0.00 0.00 0.00 0.00 0.00 0.00 0.00 0.00 0.00 0.00 0.00 0.00 0.00 0.00 0.00 0.00 0.00 0.00 0.00 0.00 0.00 0.00 0.00 0.00 0.00 0.00 0.01 0.01 0.01 0.00 0.00 0.00 0.00 0.00 0.00 0.00 0.00 0.00 0.00 0.00
0.00 0.00 0.00 0.00 0.00 0.00 0.00 0.00 0.00 0.00 0.00 0.00 0.00 0.00 0.00 0.00 0.00 0.00 0.00 0.00 0.00 0.00 0.00 0.00 0.00 0.00 0.00 0.00 0.01 0.01 0.01 0.01 0.00 0.00 0.00 0.00 0.00 0.00 0.00 0.00 0.00 0.00 0.00 0.00
0.00 0.00 0.00 0.00 0.00 0.00 0.00 0.00 0.00 0.00 0.00 0.00 0.00 0.00 0.00 0.00 0.00 0.00 0.00 0.00 0.00 0.00 0.00 0.00 0.00 0.00 0.01 0.01 0.01 0.00 0.00 0.00 0.00 0.00 0.00 0.00 0.00 0.00 0.00 0.00 0.00 0.00 0.00 0.00
0.00 0.00 0.00 0.00 0.00 0.00 0.00 0.00 0.00 0.00 0.00 0.00 0.00 0.00 0.00 0.00 0.00 0.00 0.00 0.00 0.00 0.00 0.00 0.00 0.00 0.00 0.00 0.00 0.00 0.00 0.00 0.00 0.00 0.00 0.00 0.00 0.00 0.00 0.00 0.00 0.00 0.00 0.00 0.00
0.00 0.00 0.00 0.00 0.00 0.00 0.00 0.00 0.00 0.00 0.00 0.00 0.00 0.00 0.00 0.00 0.00 0.00 0.00 0.00 0.00 0.00 0.00 0.00 0.00 0.00 0.00 0.00 0.00 0.00 0.00 0.00 0.00 0.00 0.00 0.00 0.00 0.00 0.00 0.00 0.00 0.00 0.00 0.00
0.00 0.00 0.00 0.00 0.00 0.00 0.00 0.00 0.00 0.00 0.00 0.00 0.00 0.00 0.00 0.00 0.00 0.00 0.00 0.00 0.00 0.00 0.00 0.00 0.00 0.00 0.00 0.00 0.00 0.00 0.00 0.00 0.00 0.00 0.00 0.00 0.00 0.00 0.00 0.00 0.00 0.00 0.00 0.00
0.00 0.00 0.00 0.00 0.00 0.00 0.00 0.00 0.00 0.00 0.00 0.00 0.00 0.00 0.00 0.00 0.00 0.00 0.00 0.00 0.00 0.00 0.00 0.00 0.00 0.00 0.00 0.00 0.00 0.00 0.00 0.00 0.00 0.00 0.00 0.00 0.00 0.00 0.00 0.00 0.00 0.00 0.00 0.00
0.00 0.00 0.00 0.00 0.00 0.00 0.00 0.00 0.00 0.00 0.00 0.00 0.00 0.00 0.00 0.00 0.00 0.00 0.00 0.00 0.00 0.00 0.00 0.00 0.00 0.00 0.00 0.00 0.00 0.00 0.00 0.00 0.00 0.00 0.00 0.00 0.00 0.00 0.00 0.00 0.00 0.00 0.00 0.00
0.00 0.00 0.00 0.00 0.00 0.00 0.00 0.00 0.00 0.00 0.00 0.00 0.00 0.00 0.00 0.00 0.00 0.00 0.00 0.00 0.00 0.00 0.00 0.00 0.00 0.00 0.00 0.00 0.00 0.00 0.00 0.00 0.00 0.00 0.00 0.00 0.00 0.00 0.00 0.00 0.00 0.00 0.00 0.00
0.00 0.00 0.00 0.00 0.00 0.00 0.00 0.00 0.00 0.00 0.00 0.00 0.00 0.00 0.00 0.00 0.00 0.00 0.00 0.00 0.00 0.00 0.00 0.00 0.00 0.00 0.00 0.00 0.00 0.00 0.00 0.00 0.00 0.00 0.00 0.00 0.00 0.00 0.00 0.00 0.00 0.00 0.00 0.00
0.00 0.00 0.00 0.00 0.00 0.00 0.00 0.00 0.00 0.00 0.00 0.00 0.00 0.00 0.00 0.00 0.00 0.00 0.00 0.00 0.00 0.00 0.00 0.00 0.00 0.00 0.00 0.00 0.00 0.00 0.00 0.00 0.00 0.00 0.00 0.00 0.00 0.00 0.00 0.00 0.00 0.00 0.00 0.00
0.00 0.00 0.00 0.00 0.00 0.00 0.00 0.00 0.00 0.00 0.00 0.00 0.00 0.00 0.00 0.00 0.00 0.00 0.00 0.00 0.00 0.00 0.00 0.00 0.00 0.00 0.00 0.00 0.00 0.00 0.00 0.00 0.00 0.00 0.00 0.00 0.00 0.00 0.00 0.00 0.00 0.00 0.01 0.01
0.00 0.00 0.00 0.00 0.00 0.00 0.00 0.00 0.00 0.00 0.00 0.00 0.00 0.00 0.00 0.00 0.00 0.00 0.00 0.00 0.00 0.00 0.00 0.00 0.00 0.00 0.00 0.00 0.00 0.00 0.00 0.00 0.00 0.00 0.00 0.00 0.00 0.00 0.01 0.01 0.01 0.01 0.01 0.01
0.00 0.00 0.00 0.00 0.00 0.00 0.00 0.00 0.00 0.00 0.00 0.00 0.00 0.00 0.00 0.00 0.00 0.00 0.00 0.00 0.00 0.00 0.00 0.00 0.00 0.00 0.00 0.00 0.00 0.00 0.01 0.01 0.01 0.01 0.01 0.01 0.01 0.01 0.01 0.01 0.01 0.01 0.01 0.01
0.00 0.00 0.00 0.00 0.00 0.00 0.00 0.00 0.00 0.00 0.00 0.00 0.00 0.00 0.00 0.00 0.00 0.00 0.00 0.00 0.00 0.00 0.00 0.00 0.00 0.00 0.00 0.00 0.00 0.00 0.00 0.01 0.01 0.01 0.01 0.01 0.01 0.01 0.01 0.01 0.01 0.01 0.01 0.01
0.00 0.00 0.00 0.00 0.00 0.00 0.00 0.00 0.00 0.00 0.00 0.00 0.00 0.00 0.00 0.00 0.00 0.00 0.00 0.00 0.00 0.00 0.00 0.00 0.00 0.00 0.00 0.00 0.00 0.00 0.00 0.00 0.00 0.00 0.00 0.00 0.00 0.00 0.00 0.00 0.00 0.01 0.01 0.01
0.00 0.00 0.00 0.00 0.00 0.00 0.00 0.00 0.00 0.00 0.00 0.00 0.00 0.00 0.00 0.00 0.00 0.00 0.00 0.00 0.00 0.00 0.00 0.00 0.00 0.00 0.00 0.00 0.00 0.00 0.00 0.00 0.00 0.00 0.00 0.00 0.00 0.00 0.00 0.00 0.00 0.01 0.01 0.01
0.00 0.00 0.00 0.00 0.00 0.00 0.00 0.00 0.00 0.00 0.00 0.00 0.00 0.00 0.00 0.00 0.00 0.00 0.00 0.00 0.00 0.00 0.00 0.00 0.00 0.00 0.00 0.00 0.00 0.00 0.00 0.00 0.00 0.00 0.00 0.00 0.00 0.00 0.00 0.00 0.01 0.01 0.01 0.01
0.00 0.00 0.00 0.00 0.00 0.00 0.00 0.00 0.00 0.00 0.00 0.00 0.00 0.00 0.00 0.00 0.00 0.00 0.00 0.00 0.00 0.00 0.00 0.00 0.00 0.00 0.00 0.00 0.00 0.00 0.00 0.00 0.00 0.00 0.00 0.00 0.00 0.00 0.00 0.01 0.01 0.01 0.01 0.01
MSLP
1020.85 1021.23 1021.52 1021.77 1021.99 1022.23 1022.49 1022.76 1023.02 1023.25 1023.42 1023.50 1023.49 1023.38 1023.17 1022.90 1022.58 1022.25 1021.92 1021.63 1021.36 1021.15 1020.96 1020.81 1020.69 1020.59 1020.50 1020.44 1020.39 1020.36 1020.36 1020.39 1020.45 1020.54 1020.65 1020.78 1020.91 1021.03 1021.15 1021.25 1021.33 1021.40 1021.45 1021.49
1020.92 1021.31 1021.57 1021.76 1021.90 1022.06 1022.24 1022.48 1022.75 1023.05 1023.35 1023.61 1023.80 1023.90 1023.90 1023.81 1023.63 1023.38 1023.08 1022.76 1022.45 1022.15 1021.89 1021.66 1021.47 1021.32 1021.20 1021.12 1021.05 1021.01 1020.98 1020.97 1020.98 1021.01 1021.05 1021.09 1021.15 1021.20 1021.24 1021.27 1021.28 1021.28 1021.27 1021.24
1020.99 1021.34 1021.54 1021.64 1021.70 1021.76 1021.88 1022.07 1022.36 1022.72 1023.12 1023.54 1023.91 1024.22 1024.41 1024.49 1024.44 1024.29 1024.05 1023.75 1023.42 1023.10 1022.80 1022.55 1022.34 1022.17 1022.05 1021.96 1021.88 1021.82 1021.77 1021.71 1021.66 1021.60 1021.56 1021.52 1021.48 1021.45 1021.41 1021.36 1021.30 1021.23 1021.14 1021.04
1021.02 1021.29 1021.40 1021.39 1021.34 1021.32 1021.36 1021.53 1021.82 1022.23 1022.73 1023.28 1023.82 1024.30 1024.67 1024.91 1025.01 1024.96 1024.80 1024.56 1024.27 1023.97 1023.69 1023.45 1023.26 1023.11 1023.00 1022.92 1022.84 1022.76 1022.67 1022.56 1022.44 1022.31 1022.17 1022.04 1021.92 1021.80 1021.68 1021.56 1021.43 1021.28 1021.12 1020.93
1020.97 1021.12 1021.12 1021.01 1020.86 1020.75 1020.74 1020.87 1021.17 1021.63 1022.22 1022.88 1023.56 1024.18 1024.71 1025.10 1025.33 1025.41 1025.35 1025.20 1024.98 1024.74 1024.52 1024.32 1024.18 1024.07 1023.99 1023.92 1023.84 1023.74 1023.61 1023.45 1023.26 1023.06 1022.84 1022.63 1022.43 1022.24 1022.06 1021.87 1021.68 1021.47 1021.22 1020.96
1020.79 1020.83 1020.71 1020.50 1020.27 1020.10 1020.05 1020.18 1020.50 1021.00 1021.66 1022.41 1023.20 1023.95 1024.61 1025.12 1025.48 1025.68 1025.73 1025.68 1025.55 1025.40 1025.25 1025.13 1025.03 1024.97 1024.93 1024.87 1024.80 1024.68 1024.52 1024.31 1024.07 1023.80 1023.52 1023.26 1023.00 1022.76 1022.53 1022.29 1022.04 1021.77 1021.46 1021.12
1020.47 1020.40 1020.19 1019.92 1019.64 1019.45 1019.40 1019.54 1019.89 1020.44 1021.15 1021.98 1022.85 1023.69 1024.45 1025.07 1025.53 1025.83 1025.98 1026.03 1026.00 1025.93 1025.86 1025.81 1025.78 1025.76 1025.74 1025.70 1025.62 1025.49 1025.30 1025.06 1024.78 1024.47 1024.16 1023.85 1023.57 1023.30 1023.03 1022.76 1022.47 1022.15 1021.78 1021.36
1020.00 1019.86 1019.61 1019.31 1019.05 1018.88 1018.86 1019.05 1019.44 1020.04 1020.81 1021.68 1022.61 1023.51 1024.32 1025.01 1025.54 1025.92 1026.16 1026.29 1026.34 1026.35 1026.35 1026.35 1026.36 1026.37 1026.37 1026.34 1026.25 1026.11 1025.90 1025.64 1025.34 1025.02 1024.69 1024.37 1024.07 1023.79 1023.51 1023.21 1022.89 1022.53 1022.10 1021.62
1019.40 1019.24 1019.00 1018.75 1018.54 1018.45 1018.51 1018.77 1019.23 1019.88 1020.69 1021.59 1022.54 1023.46 1024.30 1025.02 1025.59 1026.02 1026.31 1026.50 1026.61 1026.67 1026.72 1026.75 1026.79 1026.81 1026.81 1026.77 1026.68 1026.52 1026.30 1026.04 1025.73 1025.40 1025.08 1024.76 1024.46 1024.17 1023.87 1023.56 1023.21 1022.80 1022.33 1021.79
1018.70 1018.58 1018.42 1018.27 1018.18 1018.21 1018.39 1018.74 1019.28 1019.98 1020.81 1021.73 1022.67 1023.58 1024.42 1025.13 1025.71 1026.16 1026.48 1026.69 1026.83 1026.92 1026.99 1027.03 1027.07 1027.09 1027.07 1027.02 1026.90 1026.73 1026.51 1026.24 1025.93 1025.61 1025.29 1024.98 1024.68 1024.37 1024.06 1023.72 1023.34 1022.89 1022.37 1021.78
1017.96 1017.93 1017.90 1017.90 1017.97 1018.15 1018.47 1018.94 1019.56 1020.31 1021.16 1022.07 1022.99 1023.86 1024.66 1025.35 1025.91 1026.35 1026.67 1026.89 1027.03 1027.13 1027.18 1027.22 1027.24 1027.23 1027.19 1027.10 1026.97 1026.78 1026.55 1026.27 1025.97 1025.66 1025.34 1025.02 1024.70 1024.38 1024.04 1023.66 1023.23 1022.74 1022.17 1021.55
1017.23 1017.33 1017.46 1017.64 1017.90 1018.26 1018.73 1019.31 1020.01 1020.80 1021.66 1022.54 1023.42 1024.24 1024.99 1025.63 1026.16 1026.57 1026.88 1027.08 1027.22 1027.29 1027.33 1027.34 1027.32 1027.27 1027.19 1027.07 1026.91 1026.70 1026.46 1026.18 1025.87 1025.55 1025.23 1024.89 1024.55 1024.19 1023.80 1023.36 1022.88 1022.33 1021.72 1021.06
1016.55 1016.79 1017.10 1017.47 1017.92 1018.45 1019.07 1019.77 1020.53 1021.35 1022.20 1023.05 1023.88 1024.65 1025.34 1025.93 1026.42 1026.80 1027.08 1027.26 1027.38 1027.43 1027.43 1027.40 1027.34 1027.25 1027.12 1026.96 1026.77 1026.54 1026.28 1025.99 1025.68 1025.35 1025.00 1024.64 1024.25 1023.83 1023.37 1022.87 1022.32 1021.71 1021.05 1020.36
1015.94 1016.33 1016.81 1017.37 1018.00 1018.69 1019.43 1020.22 1021.03 1021.87 1022.70 1023.52 1024.29 1025.00 1025.64 1026.18 1026.63 1026.98 1027.24 1027.40 1027.49 1027.51 1027.49 1027.41 1027.30 1027.17 1027.00 1026.80 1026.58 1026.32 1026.05 1025.75 1025.43 1025.08 1024.70 1024.29 1023.85 1023.37 1022.83 1022.25 1021.62 1020.95 1020.24 1019.51
1015.42 1015.96 1016.60 1017.31 1018.09 1018.91 1019.75 1020.61 1021.46 1022.29 1023.10 1023.88 1024.60 1025.26 1025.85 1026.35 1026.77 1027.10 1027.33 1027.47 1027.54 1027.54 1027.47 1027.36 1027.21 1027.02 1026.82 1026.58 1026.33 1026.07 1025.78 1025.47 1025.13 1024.76 1024.36 1023.91 1023.41 1022.85 1022.24 1021.58 1020.88 1020.13 1019.37 1018.60
1015.00 1015.67 1016.44 1017.28 1018.18 1019.09 1020.01 1020.91 1021.77 1022.60 1023.38 1024.12 1024.79 1025.41 1025.96 1026.43 1026.82 1027.12 1027.34 1027.47 1027.51 1027.48 1027.38 1027.23 1027.04 1026.82 1026.58 1026.32 1026.05 1025.77 1025.47 1025.16 1024.81 1024.43 1024.00 1023.51 1022.96 1022.34 1021.66 1020.93 1020.15 1019.34 1018.51 1017.70
1014.70 1015.46 1016.34 1017.29 1018.27 1019.25 1020.21 1021.12 1021.99 1022.80 1023.55 1024.25 1024.88 1025.46 1025.98 1026.42 1026.79 1027.08 1027.28 1027.39 1027.41 1027.35 1027.23 1027.05 1026.82 1026.57 1026.29 1026.01 1025.73 1025.44 1025.14 1024.83 1024.48 1024.08 1023.63 1023.11 1022.52 1021.85 1021.12 1020.32 1019.48 1018.61 1017.73 1016.87
1014.52 1015.37 1016.32 1017.34 1018.38 1019.40 1020.37 1021.29 1022.14 1022.93 1023.65 1024.31 1024.91 1025.46 1025.95 1026.37 1026.72 1026.99 1027.17 1027.26 1027.26 1027.18 1027.02 1026.81 1026.55 1026.27 1025.97 1025.67 1025.38 1025.08 1024.78 1024.47 1024.12 1023.71 1023.25 1022.71 1022.09 1021.39 1020.61 1019.77 1018.89 1017.97 1017.05 1016.13
1014.48 1015.40 1016.41 1017.48 1018.54 1019.58 1020.55 1021.46 1022.29 1023.05 1023.73 1024.36 1024.93 1025.45 1025.91 1026.31 1026.64 1026.89 1027.05 1027.12 1027.09 1026.98 1026.80 1026.55 1026.27 1025.96 1025.64 1025.32 1025.01 1024.71 1024.40 1024.08 1023.72 1023.31 1022.84 1022.28 1021.65 1020.93 1020.13 1019.27 1018.36 1017.42 1016.47 1015.51
1014.60 1015.57 1016.63 1017.72 1018.79 1019.83 1020.79 1021.67 1022.47 1023.20 1023.85 1024.44 1024.98 1025.47 1025.90 1026.28 1026.58 1026.81 1026.94 1026.99 1026.93 1026.79 1026.58 1026.30 1025.99 1025.65 1025.31 1024.97 1024.64 1024.32 1024.00 1023.66 1023.29 1022.87 1022.38 1021.81 1021.17 1020.44 1019.64 1018.78 1017.87 1016.93 1015.97 1014.99
1014.88 1015.90 1016.98 1018.07 1019.14 1020.15 1021.09 1021.94 1022.71 1023.40 1024.02 1024.58 1025.08 1025.54 1025.94 1026.29 1026.56 1026.76 1026.86 1026.88 1026.79 1026.62 1026.38 1026.08 1025.74 1025.37 1025.00 1024.64 1024.28 1023.93 1023.57 1023.20 1022.80 1022.36 1021.85 1021.27 1020.62 1019.90 1019.11 1018.27 1017.38 1016.47 1015.53 1014.57
1015.31 1016.36 1017.44 1018.53 1019.58 1020.56 1021.46 1022.28 1023.01 1023.66 1024.24 1024.76 1025.23 1025.65 1026.02 1026.33 1026.57 1026.73 1026.80 1026.78 1026.67 1026.47 1026.20 1025.87 1025.50 1025.11 1024.70 1024.30 1023.91 1023.52 1023.12 1022.71 1022.27 1021.79 1021.25 1020.66 1020.00 1019.29 1018.52 1017.72 1016.88 1016.02 1015.13 1014.22
1015.85 1016.91 1017.99 1019.05 1020.07 1021.01 1021.87 1022.64 1023.33 1023.94 1024.49 1024.97 1025.41 1025.79 1026.12 1026.39 1026.59 1026.71 1026.74 1026.68 1026.54 1026.31 1026.01 1025.65 1025.25 1024.83 1024.40 1023.96 1023.52 1023.08 1022.63 1022.17 1021.68 1021.16 1020.59 1019.98 1019.32 1018.62 1017.89 1017.14 1016.37 1015.58 1014.77 1013.93
1016.45 1017.51 1018.56 1019.59 1020.56 1021.46 1022.27 1023.00 1023.64 1024.22 1024.73 1025.18 1025.57 1025.92 1026.20 1026.43 1026.58 1026.65 1026.64 1026.55 1026.36 1026.10 1025.77 1025.39 1024.96 1024.51 1024.04 1023.56 1023.08 1022.59 1022.09 1021.58 1021.04 1020.48 1019.88 1019.26 1018.60 1017.93 1017.24 1016.55 1015.85 1015.14 1014.42 1013.68
1017.04 1018.08 1019.10 1020.08 1021.00 1021.85 1022.62 1023.30 1023.91 1024.45 1024.93 1025.34 1025.70 1026.00 1026.24 1026.42 1026.52 1026.54 1026.48 1026.34 1026.11 1025.81 1025.45 1025.03 1024.58 1024.10 1023.60 1023.09 1022.57 1022.05 1021.51 1020.95 1020.38 1019.78 1019.17 1018.54 1017.89 1017.24 1016.60 1015.96 1015.33 1014.71 1014.08 1013.43
1017.55 1018.55 1019.53 1020.46 1021.34 1022.14 1022.87 1023.52 1024.10 1024.61 1025.06 1025.44 1025.77 1026.03 1026.22 1026.34 1026.39 1026.36 1026.24 1026.04 1025.77 1025.42 1025.02 1024.58 1024.10 1023.59 1023.07 1022.53 1021.99 1021.44 1020.87 1020.30 1019.70 1019.10 1018.48 1017.85 1017.22 1016.60 1016.00 1015.41 1014.84 1014.28 1013.72 1013.14
1017.91 1018.88 1019.81 1020.70 1021.54 1022.30 1023.00 1023.63 1024.19 1024.69 1025.11 1025.47 1025.77 1025.99 1026.13 1026.20 1026.19 1026.09 1025.92 1025.66 1025.33 1024.94 1024.50 1024.02 1023.51 1022.98 1022.44 1021.89 1021.34 1020.78 1020.21 1019.63 1019.04 1018.44 1017.84 1017.23 1016.62 1016.03 1015.45 1014.90 1014.36 1013.83 1013.31 1012.77
Thickness
5690 5696 5695 5695 5695 5692 5687 5685 5680 5690 5695 5709 5718 5721 5724 5723 5721 5719 5717 5716 5715 5713 5712 5711 5709 5708 5707 5706 5704 5702 5699 5696 5695 5694 5691 5689 5686 5684 5682 5680 5679 5677 5675 5673
5690 5697 5696 5694 5699 5696 5695 5695 5692 5695 5700 5719 5723 5723 5722 5721 5720 5717 5717 5717 5716 5715 5713 5711 5710 5708 5707 5705 5703 5700 5698 5696 5694 5691 5689 5686 5684 5682 5680 5678 5676 5674 5672 5670
5676 5687 5692 5686 5700 5701 5701 5704 5701 5696 5709 5720 5719 5721 5721 5721 5720 5719 5719 5718 5717 5715 5714 5713 5711 5709 5707 5705 5701 5698 5696 5694 5692 5689 5687 5685 5683 5679 5677 5675 5673 5671 5669 5668
5670 5678 5672 5694 5715 5713 5708 5710 5711 5713 5716 5720 5721 5723 5724 5724 5722 5721 5721 5719 5718 5717 5716 5715 5712 5710 5707 5703 5700 5697 5694 5692 5690 5687 5685 5682 5679 5677 5674 5672 5670 5668 5666 5665
5661 5664 5673 5696 5712 5712 5707 5708 5718 5716 5718 5719 5720 5719 5718 5724 5725 5724 5723 5722 5720 5719 5717 5714 5711 5708 5705 5700 5697 5694 5692 5690 5688 5686 5683 5680 5677 5674 5672 5670 5667 5666 5664 5663
5658 5663 5665 5693 5716 5720 5713 5702 5721 5720 5718 5716 5715 5704 5710 5723 5723 5722 5721 5720 5718 5716 5714 5711 5709 5706 5702 5697 5694 5693 5692 5690 5687 5684 5681 5678 5676 5673 5670 5668 5665 5663 5661 5660
5657 5660 5672 5703 5714 5715 5693 5700 5724 5723 5720 5715 5712 5713 5718 5721 5720 5720 5718 5717 5716 5713 5710 5708 5706 5703 5698 5695 5694 5694 5691 5687 5684 5681 5679 5676 5673 5670 5667 5664 5661 5659 5657 5655
5653 5657 5672 5709 5708 5703 5708 5721 5723 5723 5721 5717 5715 5716 5717 5717 5715 5714 5713 5712 5711 5708 5706 5705 5702 5699 5695 5693 5693 5690 5687 5683 5680 5678 5675 5673 5669 5665 5663 5660 5656 5653 5651 5649
5672 5681 5699 5705 5709 5716 5718 5717 5720 5720 5720 5718 5714 5712 5712 5711 5710 5709 5708 5707 5706 5704 5701 5699 5698 5696 5693 5691 5689 5686 5682 5679 5676 5673 5670 5668 5664 5660 5657 5654 5651 5648 5646 5644
5673 5685 5697 5703 5708 5713 5715 5716 5718 5718 5717 5715 5711 5709 5707 5705 5703 5703 5702 5701 5700 5697 5695 5693 5692 5691 5690 5687 5684 5681 5677 5673 5671 5667 5664 5662 5659 5656 5652 5649 5646 5644 5641 5639
5673 5685 5694 5702 5705 5709 5711 5712 5712 5712 5711 5710 5707 5704 5702 5699 5698 5697 5695 5694 5693 5691 5689 5687 5686 5685 5684 5681 5679 5675 5672 5668 5665 5662 5659 5655 5653 5650 5649 5647 5645 5641 5638 5635
5675 5688 5688 5695 5703 5705 5704 5704 5705 5705 5703 5702 5701 5698 5696 5693 5692 5691 5689 5688 5686 5685 5683 5681 5680 5679 5678 5676 5674 5670 5665 5662 5659 5655 5652 5649 5645 5643 5642 5640 5639 5637 5634 5630
5687 5691 5689 5694 5697 5699 5699 5699 5699 5698 5697 5694 5693 5691 5690 5686 5685 5684 5682 5681 5680 5679 5677 5675 5674 5672 5671 5670 5668 5665 5660 5656 5652 5649 5645 5641 5638 5635 5632 5631 5630 5628 5625 5623
5682 5683 5682 5686 5687 5690 5691 5691 5690 5689 5688 5687 5685 5683 5681 5679 5677 5676 5674 5674 5673 5671 5669 5668 5666 5665 5664 5663 5660 5657 5653 5651 5647 5642 5638 5634 5631 5628 5625 5622 5619 5617 5616 5613
5675 5677 5678 5680 5680 5680 5681 5680 5678 5676 5676 5676 5676 5675 5673 5671 5668 5667 5667 5666 5664 5663 5661 5659 5658 5656 5656 5654 5652 5648 5645 5641 5638 5634 5630 5626 5622 5619 5615 5613 5609 5606 5604 5602
5668 5668 5669 5669 5669 5670 5670 5670 5668 5666 5666 5666 5665 5665 5664 5663 5660 5659 5658 5657 5655 5653 5652 5651 5649 5649 5647 5646 5643 5640 5636 5635 5631 5626 5621 5617 5613 5609 5605 5602 5599 5596 5593 5590
5658 5657 5658 5658 5659 5660 5660 5661 5660 5659 5658 5657 5656 5655 5654 5652 5650 5648 5647 5647 5646 5645 5643 5642 5641 5640 5639 5637 5634 5631 5627 5624 5622 5616 5611 5608 5604 5600 5596 5592 5588 5585 5583 5580
5657 5657 5656 5656 5654 5653 5652 5652 5651 5650 5649 5649 5647 5645 5644 5642 5640 5638 5637 5636 5635 5633 5632 5632 5632 5631 5629 5627 5625 5622 5618 5614 5610 5606 5602 5597 5593 5590 5586 5581 5578 5574 5571 5568
5648 5648 5648 5647 5647 5645 5644 5642 5642 5641 5640 5639 5637 5635 5634 5632 5630 5628 5627 5625 5624 5622 5621 5622 5622 5621 5619 5617 5615 5611 5607 5603 5599 5595 5591 5587 5582 5577 5573 5570 5566 5562 5559 5555
5638 5639 5638 5638 5637 5635 5634 5633 5632 5631 5630 5629 5627 5624 5622 5620 5619 5617 5616 5613 5612 5612 5612 5611 5611 5609 5608 5606 5604 5600 5596 5592 5587 5583 5578 5574 5570 5565 5561 5558 5554 5550 5547 5543
5627 5628 5628 5627 5626 5625 5624 5623 5622 5621 5619 5618 5616 5613 5611 5608 5608 5606 5604 5601 5601 5601 5601 5601 5599 5597 5595 5594 5591 5587 5583 5579 5575 5570 5566 5561 5557 5553 5549 5545 5542 5538 5535 5531
5615 5615 5616 5615 5614 5612 5611 5611 5610 5609 5607 5605 5603 5601 5598 5596 5594 5593 5592 5590 5590 5591 5590 5588 5587 5586 5584 5582 5578 5574 5570 5565 5561 5557 5553 5549 5544 5540 5536 5533 5529 5526 5522 5518
5602 5603 5603 5602 5601 5599 5598 5597 5597 5596 5594 5593 5591 5589 5587 5585 5583 5581 5579 5578 5578 5579 5578 5576 5575 5575 5572 5568 5564 5560 5556 5552 5548 5544 5540 5536 5532 5528 5524 5520 5516 5512 5508 5504
5590 5590 5590 5589 5588 5587 5585 5584 5583 5582 5582 5580 5579 5578 5576 5572 5570 5569 5569 5569 5568 5567 5565 5564 5564 5562 5560 5555 5551 5547 5543 5539 5535 5531 5527 5523 5519 5515 5511 5507 5502 5498 5494 5490
5577 5577 5577 5576 5576 5574 5572 5571 5571 5570 5569 5567 5566 5565 5564 5562 5560 5558 5557 5556 5556 5554 5552 5551 5550 5548 5545 5541 5537 5533 5529 5525 5521 5518 5514 5509 5505 5501 5497 5493 5489 5484 5480 5475
5563 5564 5564 5564 5563 5562 5561 5560 5558 5557 5556 5554 5552 5551 5550 5549 5549 5547 5545 5544 5542 5541 5538 5536 5534 5533 5529 5526 5522 5519 5515 5511 5507 5503 5499 5495 5491 5487 5483 5479 5474 5470 5465 5461
5549 5549 5549 5548 5548 5548 5548 5548 5547 5545 5544 5543 5540 5538 5538 5537 5536 5534 5532 5530 5528 5526 5524 5522 5519 5517 5514 5511 5508 5504 5501 5497 5493 5489 5485 5481 5477 5473 5469 5464 5460 5455 5451 5447